Regional Weather Roundup
Issued by NWS Sterling, VA

Home | Current Version | Previous Version | Text Only | Print | Product List | Glossary Off
Versions: 1 2 3 4 5 6 7 8 9 10 11 12 13 14 15 16 17 18 19 20 21 22 23 24 25 26 27 28 29 30 31 32 33 34 35 36 37 38 39 40 41 42 43 44 45 46 47 48 49 50

000
ASUS41 KLWX 300810
RWRLWX

REGIONAL WEATHER ROUNDUP
NATIONAL WEATHER SERVICE BALTIMORE MD/WASHINGTON DC
300 AM EST FRI JAN 30 2015

Note: "FAIR" indicates few or no clouds below 12,000 feet
with no significant weather and/or obstructions to visibility.
 TC=TEMPERATURE CELSIUS

 * =Non NWS site. Station does not report precipitation (e.g. rain,
    snow, etc.), thunder, or fog.

DCZ001-MDZ009-015-VAZ040>042-051-053>054-300900-
WASHINGTON METRO

CITY           SKY/WX    TMP DP  RH WIND       PRES   REMARKS
WASHINGTON NAT CLOUDY    40  25  55 CALM      29.94S
DULLES         CLOUDY    35  24  64 CALM      29.93R
FT BELVOIR     CLOUDY    35  28  74 CALM      29.94R
QUANTICO       CLOUDY    39  24  55 NW5       29.95R
COLLEGE PARK*  CLOUDY    34  32  93 CALM      29.92S
LEESBURG*      CLOUDY    41  34  75 NW16G28   29.92S
MANASSAS*      CLOUDY    36  30  80 CALM      29.94R
GAITHERSBURG*  CLOUDY    34  25  69 W3        29.94S

$$

MDZ006>007-011-014-300900-
BALTIMORE METRO

CITY           SKY/WX    TMP DP  RH WIND       PRES   REMARKS
BWI AIRPORT    CLOUDY    33  26  75 W3        29.91S
MD SCIENCE CTR   N/A     36  25  64 MISG      29.92S
MARTIN STATE   CLOUDY    36  32  87 CALM      29.92F
ANNAPOLIS      CLOUDY    36  26  67 NW5       29.91S
FORT MEADE*    CLOUDY    32  30  93 CALM      29.94S

$$

MDZ012-015-019>023-300900-
MARYLAND EASTERN SHORE

CITY           SKY/WX    TMP DP  RH WIND       PRES   REMARKS
OCEAN CITY     CLOUDY    39  29  67 SW13      29.91F
SALISBURY      CLOUDY    43  24  47 SW9       29.90F
BAY BRIDGE AP*   N/A     36  30  80 CALM      29.92S
CAMBRIDGE*     CLOUDY    37  28  70 CALM      29.91R
EASTON*        CLOUDY    39  29  67 W3        29.95S

$$

MDZ017>025-300900-
SOUTHERN MARYLAND

CITY           SKY/WX    TMP DP  RH WIND       PRES   REMARKS
PATUXENT RIVER CLOUDY    41  21  44 W8        29.91R
ST INIGOES     CLOUDY    41  23  48 W7        29.90F
LEONARDTOWN*   CLOUDY    39  23  52 W6        29.92S

$$

MDZ003>005-300900-
NORTH CENTRAL MARYLAND

CITY           SKY/WX    TMP DP  RH WIND       PRES   REMARKS
FREDERICK*     CLOUDY    36  27  69 SW3       29.94S
HAGERSTOWN APT CLOUDY    31  26  82 W10       29.92R WCI  22
WESTMINSTER*   CLOUDY    34  25  69 W7        29.88S

$$

MDZ501>502-300900-
WESTERN MARYLAND

CITY           SKY/WX    TMP DP  RH WIND       PRES   REMARKS
OAKLAND*       FOG       27 N/A N/A NW12G21   29.87R VSB 3/4 WCI  16
CUMBERLAND*    MOCLDY    37  28  70 NW7G16    29.99

$$

VAZ025>031-300900-
SHENANDOAH VALLEY

CITY           SKY/WX    TMP DP  RH WIND       PRES   REMARKS
WINCHESTER*    CLOUDY    39  27  60 NW20      29.92S
FRONT ROYAL*   CLOUDY    39  30  70 NW7       29.92S
LURAY*         CLOUDY    43  32  65 NW7       29.92S
NEW MARKET*    CLOUDY    40  26  56 W3        29.93R
STAUNTON*      CLOUDY    41  26  54 NW7       29.94R
WAYNESBORO*    CLOUDY    41  27  58 W9G18     29.92R

$$

WVZ021-048>050-054>055-300900-
EASTERN WEST VIRGINIA PANHANDLE

CITY           SKY/WX    TMP DP  RH WIND       PRES   REMARKS
MARTINSBURG    CLOUDY    40  28  62 W16G24    29.93R
PETERSBURG*    CLOUDY    38  25  59 W7G21     29.96S

$$

VAZ036>039-050-300900-
CENTRAL FOOTHILLS

CITY           SKY/WX    TMP DP  RH WIND       PRES   REMARKS
CHARLOTTESVILL CLOUDY    40  27  59 CALM      29.91R
CULPEPER*      CLOUDY    36  28  75 N3        29.93S
ORANGE*        CLOUDY    36  30  80 N5        29.94R
GORDONSVILLE*  CLOUDY    34  26  74 CALM      29.91S
WARRENTON*     CLOUDY    37  31  80 CALM      29.92S

$$

VAZ055>057-300900-
NORTH AND CENTRAL PIEDMONT

CITY           SKY/WX    TMP DP  RH WIND       PRES   REMARKS
FREDERICKSBRG* CLOUDY    41  26  55 NW5       29.93R
STAFFORD*      CLOUDY    40  22  50 CALM      29.97R

$$

NCZ024-NYZ072-PAZ021-071-VAZ022-071-300900-
OTHER REGIONAL OBSERVATIONS

CITY           SKY/WX    TMP DP  RH WIND       PRES   REMARKS
NEW YORK CITY  CLOUDY    34  29  82 S5        29.92F HAZE
PHILADELPHIA   CLOUDY    35  25  66 S5        29.90F
PITTSBURGH     LGT SNOW  30  28  92 W10       29.99R WCI  21
ROANOKE        CLOUDY    41  27  57 W16G25    30.01R
RICHMOND       CLOUDY    41  25  53 SW5       29.92F
RALEIGH        MOCLDY    38  26  62 SW5       29.97F

$$

ANZ530>537-300900-
MARINE OBSERVATIONS

STATION/POSITION TIME  TEMP    WIND        PRES
                       AIR SEA DIR/SP/G
                 (UTC) (F)     (DEG/KT/KT) (MB)
THOMAS PT LIGHT  0800   37 35  290/  8/  9 1014.0S
BALT KEY BRIDGE  0800   36     250/  5/  5 1012.8F
COVE POINT       0800   40     270/ 16/ 21 1012.0S
LEWISETTA        0800   42 36  250/ 12/ 14 1012.2S
SOLOMONS ISLAND  0800      37                N/A
PINEY POINT      0800          310/  7/  8   N/A

$$



USA.gov is the U.S. government's official web portal to all federal, state and local government web resources and services.